Satellite: NO-44
Catalog number: 26931
Epoch time:      10244.74061774
Element set:    0549
Inclination:      067.0533 deg
RA of node:       006.7366 deg
Eccentricity:    0.0005160
Arg of perigee:   269.2682 deg
Mean anomaly:     090.7827 deg
Mean motion:   14.29607916 rev/day
Decay rate:      -1.91e-06 rev/day^2
Epoch rev:           46569
Checksum:              323

Satellite: SO-50
Catalog number: 27607
Epoch time:      10245.20962927
Element set:     259
Inclination:      064.5569 deg
RA of node:       122.5669 deg
Eccentricity:    0.0039363
Arg of perigee:   042.8413 deg
Mean anomaly:     317.5740 deg
Mean motion:   14.71570651 rev/day
Decay rate:       -2.8e-07 rev/day^2
Epoch rev:           41371
Checksum:              306

Satellite: CO-55
Catalog number: 27844
Epoch time:      10245.07133855
Element set:     926
Inclination:      098.7104 deg
RA of node:       252.9469 deg
Eccentricity:    0.0009526
Arg of perigee:   315.4555 deg
Mean anomaly:     044.5849 deg
Mean motion:   14.20726485 rev/day
Decay rate:        3.8e-07 rev/day^2
Epoch rev:           37200
Checksum:              319

Satellite: CO-57
Catalog number: 27848
Epoch time:      10245.53480324
Element set:     874
Inclination:      098.7157 deg
RA of node:       252.5126 deg
Eccentricity:    0.0009494
Arg of perigee:   318.2484 deg
Mean anomaly:     041.7967 deg
Mean motion:   14.20518085 rev/day
Decay rate:        4.7e-07 rev/day^2
Epoch rev:           37202
Checksum:              321

Satellite: AO-51
Catalog number: 28375
Epoch time:      10244.47605718
Element set:     763
Inclination:      098.0681 deg
RA of node:       233.6521 deg
Eccentricity:    0.0082781
Arg of perigee:   225.8616 deg
Mean anomaly:     133.5746 deg
Mean motion:   14.40696783 rev/day
Decay rate:        2.5e-07 rev/day^2
Epoch rev:           32449
Checksum:              323

Satellite: GENESAT1
Catalog number: 29655
Epoch time:      10216.61700559
Element set:     226
Inclination:      040.0059 deg
RA of node:       067.3006 deg
Eccentricity:    0.0005079
Arg of perigee:   297.8744 deg
Mean anomaly:     064.7087 deg
Mean motion:   16.44862838 rev/day
Decay rate:  1.0637092e-01 rev/day^2
Epoch rev:           20777
Checksum:              320

Satellite: CP3
Catalog number: 31129
Epoch time:      10244.07249080
Element set:    0667
Inclination:      097.9353 deg
RA of node:       279.5629 deg
Eccentricity:    0.0102718
Arg of perigee:   359.2190 deg
Mean anomaly:     000.8791 deg
Mean motion:   14.52296897 rev/day
Decay rate:        8.5e-07 rev/day^2
Epoch rev:           17887
Checksum:              335

Satellite: CO-65
Catalog number: 32785
Epoch time:      10245.28608097
Element set:     773
Inclination:      097.8899 deg
RA of node:       309.1204 deg
Eccentricity:    0.0015731
Arg of perigee:   037.2322 deg
Mean anomaly:     322.9999 deg
Mean motion:   14.81707737 rev/day
Decay rate:       4.25e-06 rev/day^2
Epoch rev:           12690
Checksum:              337

Satellite: KKS-1
Catalog number: 33493
Epoch time:      10245.88173944
Element set:     815
Inclination:      098.0937 deg
RA of node:       006.0728 deg
Eccentricity:    0.0018680
Arg of perigee:   248.9508 deg
Mean anomaly:     110.9700 deg
Mean motion:   14.81081602 rev/day
Decay rate:       4.00e-06 rev/day^2
Epoch rev:            8698
Checksum:              305

Satellite: SOHLA-1
Catalog number: 33496
Epoch time:      10244.83138231
Element set:     192
Inclination:      098.0632 deg
RA of node:       352.9337 deg
Eccentricity:    0.0006103
Arg of perigee:   328.6762 deg
Mean anomaly:     031.4085 deg
Mean motion:   14.69512557 rev/day
Decay rate:       1.22e-06 rev/day^2
Epoch rev:            8613
Checksum:              281

Satellite: TISAT-1
Catalog number: 36799
Epoch time:      10245.72895719
Element set:      87
Inclination:      098.1414 deg
RA of node:       305.6288 deg
Eccentricity:    0.0016489
Arg of perigee:   122.1665 deg
Mean anomaly:     238.1143 deg
Mean motion:   14.80155481 rev/day
Decay rate:       2.95e-06 rev/day^2
Epoch rev:             778
Checksum:              327

Satellite: STUDSAT
Catalog number: 36801
Epoch time:      10245.34327518
Element set:      58
Inclination:      098.1445 deg
RA of node:       305.1887 deg
Eccentricity:    0.0015036
Arg of perigee:   112.0518 deg
Mean anomaly:     248.2292 deg
Mean motion:   14.79617248 rev/day
Decay rate:       7.36e-06 rev/day^2
Epoch rev:             772
Checksum:              291

/EX
SB KEPS @ AMSAT  $ORB10245.W
Orbital Elements  10245.WEATHER

HR AMSAT ORBITAL ELEMENTS FOR WEATHER SATELLITES
FROM WA5QGD FORT WORTH,TX September 2, 2010
Send Subscribe/unsubscribe to KEPS at http://www.amsat.org/mailman/listinfo/kep
BID: ORB10245.W
TO ALL RADIO AMATEURS BT

Satellite: NOAA-10
Catalog number: 16969
Epoch time:      10244.69803470
Element set:    0187
Inclination:      098.6524 deg
RA of node:       272.9323 deg
Eccentricity:    0.0012429
Arg of perigee:   352.6337 deg
Mean anomaly:     007.4678 deg
Mean motion:   14.27425212 rev/day
Decay rate:       -3.4e-07 rev/day^2
Epoch rev:           24649
Checksum:              311

